Weather History for Keokuk, IA

Change the Weather History Date:

Friday, April 12, 2013

  Actual Average Record
Temperature  
Mean Temperature 44 °F -  
Max Temperature 48 °F 62 °F 85 °F (1971)
Min Temperature 39 °F 42 °F 21 °F (1940)
Degree Days  
Heating Degree Days 22    
Moisture  
Dew Point 30 °F    
Average Humidity 63    
Maximum Humidity 70    
Minimum Humidity 53    
Precipitation  
Precipitation 0.00 in - - ()
Sea Level Pressure  
Sea Level Pressure 29.79 in    
Wind  
Wind Speed 13 mph (West)    
Max Wind Speed 21 mph    
Max Gust Speed 26 mph    
Visibility 10 miles    
Events      
Averages and records for this station are not official NWS values.
T = Trace of Precipitation, MM = Missing Value Source: NWS Daily Summary

Daily Weather History Graph

Daily Weather History Graph

Search for Another Location

Airport:

Trip Planner

Search our weather history database for the weather conditions in past years. The results will help you decide how hot, cold, wet, or windy it might be!

Date:

Astronomy

Apr. 12, 2013 Rise Set
Actual Time 6:31 AM CDT 7:41 PM CDT
Civil Twilight 6:03 AM CDT 8:10 PM CDT
Nautical Twilight 5:29 AM CDT 8:43 PM CDT
Astronomical Twilight 4:54 AM CDT 9:19 PM CDT
Moon 7:41 AM CDT (4/12) 10:13 PM CDT (4/12)
Length of Visible Light 14h 06m
Length of Day
13h 10m
Waxing Crescent, 5% of the Moon is Illuminated
Apr 12
Waxing Crescent
Apr 18
First Quarter
Apr 25
Full
May 2
Last Quarter
May 9
New

Hourly Weather History & Observations

Time (CDT) Temp. Windchill Dew Point Humidity Pressure Visibility Wind Dir Wind Speed Gust Speed Precip Events Conditions
12:15 AM 39.2 °F 32.5 °F 28.4 °F 65% 29.67 in 10.0 mi WSW 10.4 mph - N/A   Overcast
12:35 AM 39.2 °F 33.0 °F 28.4 °F 65% 29.67 in 10.0 mi WSW 9.2 mph 18.4 mph N/A   Overcast
12:55 AM 39.2 °F 32.0 °F 28.4 °F 65% 29.67 in 10.0 mi WSW 11.5 mph - N/A   Overcast
1:15 AM 39.2 °F 33.0 °F 28.4 °F 65% 29.67 in 10.0 mi WSW 9.2 mph - N/A   Overcast
1:35 AM 39.2 °F 32.5 °F 28.4 °F 65% 29.67 in 10.0 mi WSW 10.4 mph - N/A   Overcast
1:55 AM 39.2 °F 31.6 °F 30.2 °F 70% 29.66 in 10.0 mi WSW 12.7 mph - N/A   Overcast
2:15 AM 39.2 °F 32.5 °F 30.2 °F 70% 29.66 in 10.0 mi WSW 10.4 mph - N/A   Overcast
2:35 AM 39.2 °F 32.5 °F 30.2 °F 70% 29.66 in 10.0 mi WSW 10.4 mph - N/A   Overcast
2:55 AM 41.0 °F 34.3 °F 30.2 °F 65% 29.66 in 10.0 mi WSW 11.5 mph - N/A   Overcast
3:15 AM 41.0 °F 33.9 °F 30.2 °F 65% 29.65 in 10.0 mi WSW 12.7 mph 19.6 mph N/A   Overcast
3:35 AM 41.0 °F 34.7 °F 30.2 °F 65% 29.65 in 10.0 mi WSW 10.4 mph 18.4 mph N/A   Overcast
3:55 AM 39.2 °F 32.5 °F 30.2 °F 70% 29.65 in 10.0 mi WSW 10.4 mph 16.1 mph N/A   Overcast
4:15 AM 39.2 °F 30.8 °F 30.2 °F 70% 29.65 in 10.0 mi WSW 15.0 mph 18.4 mph N/A   Overcast
4:35 AM 39.2 °F 32.0 °F 30.2 °F 70% 29.65 in 10.0 mi West 11.5 mph - N/A   Overcast
4:55 AM 39.2 °F 31.6 °F 30.2 °F 70% 29.65 in 10.0 mi West 12.7 mph - N/A   Overcast
5:15 AM 39.2 °F 32.0 °F 30.2 °F 70% 29.65 in 10.0 mi WSW 11.5 mph - N/A   Overcast
5:35 AM 39.2 °F 31.2 °F 30.2 °F 70% 29.65 in 10.0 mi WSW 13.8 mph - N/A   Overcast
5:55 AM 39.2 °F 33.6 °F 30.2 °F 70% 29.65 in 10.0 mi West 8.1 mph - N/A   Overcast
6:15 AM 39.2 °F 32.0 °F 30.2 °F 70% 29.66 in 10.0 mi West 11.5 mph 16.1 mph N/A   Overcast
6:35 AM 39.2 °F 31.2 °F 30.2 °F 70% 29.67 in 10.0 mi West 13.8 mph 18.4 mph N/A   Overcast
6:55 AM 39.2 °F 29.8 °F 28.4 °F 65% 29.68 in 10.0 mi West 18.4 mph - N/A   Overcast
7:15 AM 39.2 °F 30.5 °F 28.4 °F 65% 29.69 in 10.0 mi West 16.1 mph 20.7 mph N/A   Overcast
7:35 AM 39.2 °F 30.5 °F 28.4 °F 65% 29.69 in 10.0 mi West 16.1 mph - N/A   Overcast
7:55 AM 39.2 °F 30.5 °F 30.2 °F 70% 29.70 in 10.0 mi West 16.1 mph 20.7 mph N/A   Overcast
8:15 AM 39.2 °F 31.2 °F 30.2 °F 70% 29.71 in 10.0 mi West 13.8 mph - N/A   Overcast
8:35 AM 39.2 °F 29.3 °F 30.2 °F 70% 29.71 in 10.0 mi WSW 20.7 mph - N/A   Overcast
8:55 AM 39.2 °F 30.5 °F 30.2 °F 70% 29.72 in 10.0 mi West 16.1 mph 21.9 mph N/A   Overcast
9:15 AM 41.0 °F 33.1 °F 30.2 °F 65% 29.72 in 10.0 mi West 15.0 mph - N/A   Overcast
9:55 AM 41.0 °F 32.8 °F 30.2 °F 65% 29.74 in 10.0 mi West 16.1 mph 19.6 mph N/A   Overcast
10:15 AM 41.0 °F 32.8 °F 30.2 °F 65% 29.74 in 10.0 mi West 16.1 mph 21.9 mph N/A   Overcast
10:35 AM 41.0 °F 32.8 °F 30.2 °F 65% 29.75 in 10.0 mi West 16.1 mph 21.9 mph N/A   Overcast
10:55 AM 42.8 °F 35.8 °F 30.2 °F 61% 29.76 in 10.0 mi West 13.8 mph - N/A   Overcast
11:15 AM 42.8 °F 35.4 °F 32.0 °F 66% 29.77 in 10.0 mi West 15.0 mph - N/A   Overcast
11:35 AM 42.8 °F 36.2 °F 32.0 °F 66% 29.78 in 10.0 mi West 12.7 mph - N/A   Overcast
11:55 AM 42.8 °F 34.5 °F 32.0 °F 66% 29.79 in 10.0 mi West 18.4 mph 24.2 mph N/A   Overcast
12:15 PM 44.6 °F 38.4 °F 30.2 °F 57% 29.79 in 10.0 mi West 12.7 mph 21.9 mph N/A   Overcast
12:35 PM 44.6 °F 37.4 °F 30.2 °F 57% 29.80 in 10.0 mi West 16.1 mph 24.2 mph N/A   Overcast
12:55 PM 44.6 °F 37.2 °F 30.2 °F 57% 29.81 in 10.0 mi WNW 17.3 mph 23.0 mph N/A   Overcast
1:15 PM 44.6 °F 38.1 °F 30.2 °F 57% 29.82 in 10.0 mi WNW 13.8 mph - N/A   Overcast
1:35 PM 46.4 °F 39.2 °F 32.0 °F 57% 29.82 in 10.0 mi West 18.4 mph 21.9 mph N/A   Overcast
1:55 PM 44.6 °F 36.9 °F 30.2 °F 57% 29.83 in 10.0 mi West 18.4 mph 25.3 mph N/A   Overcast
2:15 PM 48.2 °F - 32.0 °F 54% 29.83 in 10.0 mi WNW 16.1 mph - N/A   Mostly Cloudy
2:35 PM 44.6 °F 37.2 °F 30.2 °F 57% 29.85 in 10.0 mi West 17.3 mph 25.3 mph N/A   Mostly Cloudy
2:55 PM 44.6 °F 37.2 °F 30.2 °F 57% 29.85 in 10.0 mi West 17.3 mph 21.9 mph N/A   Overcast
3:15 PM 46.4 °F 40.1 °F 32.0 °F 57% 29.85 in 10.0 mi West 15.0 mph 19.6 mph N/A   Overcast
3:35 PM 46.4 °F 39.5 °F 30.2 °F 53% 29.86 in 10.0 mi West 17.3 mph 26.5 mph N/A   Overcast
3:55 PM 44.6 °F 38.1 °F 30.2 °F 57% 29.86 in 10.0 mi West 13.8 mph 19.6 mph N/A   Overcast
4:15 PM 44.6 °F 37.4 °F 30.2 °F 57% 29.87 in 10.0 mi West 16.1 mph 24.2 mph N/A   Overcast
4:35 PM 44.6 °F 37.4 °F 30.2 °F 57% 29.87 in 10.0 mi West 16.1 mph 23.0 mph N/A   Overcast
4:55 PM 46.4 °F 40.4 °F 30.2 °F 53% 29.88 in 10.0 mi West 13.8 mph 18.4 mph N/A   Overcast
5:15 PM 44.6 °F 39.2 °F 30.2 °F 57% 29.88 in 10.0 mi West 10.4 mph - N/A   Overcast
5:35 PM 44.6 °F 39.2 °F 30.2 °F 57% 29.89 in 10.0 mi West 10.4 mph - N/A   Overcast
5:55 PM 44.6 °F 39.2 °F 30.2 °F 57% 29.89 in 10.0 mi West 10.4 mph - N/A   Overcast
6:15 PM 44.6 °F 38.1 °F 30.2 °F 57% 29.89 in 10.0 mi West 13.8 mph 20.7 mph N/A   Overcast
6:35 PM 44.6 °F 38.4 °F 30.2 °F 57% 29.90 in 10.0 mi West 12.7 mph - N/A   Overcast
6:55 PM 44.6 °F 38.1 °F 30.2 °F 57% 29.90 in 10.0 mi West 13.8 mph 18.4 mph N/A   Overcast
7:15 PM 44.6 °F 38.1 °F 30.2 °F 57% 29.90 in 10.0 mi West 13.8 mph - N/A   Overcast
7:35 PM 44.6 °F 37.8 °F 30.2 °F 57% 29.91 in 10.0 mi West 15.0 mph - N/A   Overcast
7:55 PM 42.8 °F 37.5 °F 30.2 °F 61% 29.91 in 10.0 mi West 9.2 mph - N/A   Overcast
8:15 PM 42.8 °F 36.2 °F 30.2 °F 61% 29.91 in 10.0 mi West 12.7 mph 17.3 mph N/A   Overcast
8:35 PM 42.8 °F 36.2 °F 30.2 °F 61% 29.92 in 10.0 mi West 12.7 mph 17.3 mph N/A   Overcast
8:55 PM 42.8 °F 36.2 °F 30.2 °F 61% 29.92 in 10.0 mi West 12.7 mph - N/A   Overcast
9:15 PM 42.8 °F 37.0 °F 30.2 °F 61% 29.93 in 10.0 mi West 10.4 mph - N/A   Overcast
9:35 PM 42.8 °F 36.6 °F 30.2 °F 61% 29.94 in 10.0 mi West 11.5 mph - N/A   Overcast
9:55 PM 42.8 °F 37.0 °F 28.4 °F 57% 29.94 in 10.0 mi West 10.4 mph - N/A   Overcast
10:15 PM 42.8 °F 38.6 °F 30.2 °F 61% 29.95 in 10.0 mi West 6.9 mph - N/A   Overcast
10:35 PM 42.8 °F 38.0 °F 30.2 °F 61% 29.95 in 10.0 mi WSW 8.1 mph - N/A   Overcast
10:55 PM 42.8 °F 37.0 °F 30.2 °F 61% 29.95 in 10.0 mi WSW 10.4 mph - N/A   Overcast
11:15 PM 42.8 °F 38.0 °F 30.2 °F 61% 29.95 in 10.0 mi West 8.1 mph - N/A   Overcast
11:35 PM 42.8 °F 37.5 °F 30.2 °F 61% 29.95 in 10.0 mi West 9.2 mph - N/A   Overcast
11:55 PM 42.8 °F 37.5 °F 30.2 °F 61% 29.96 in 10.0 mi West 9.2 mph - N/A   Overcast